Theta_e
304 306 308 309 308 311 312 313 313 312 307 308 309 309 309 307 304 305 304 303 302 302 303 303 303 303 304 304 304 303 304 304 303 302 301 301 301 301 301 301 300 299 299 297
304 307 309 308 307 309 309 311 312 309 305 306 309 309 308 308 307 306 306 304 302 300 301 302 302 302 302 302 302 302 303 303 302 301 301 300 300 300 300 300 299 298 297 296
308 310 307 305 306 306 308 310 312 312 306 304 306 311 311 308 307 306 302 304 301 300 300 300 301 302 302 301 301 302 302 301 301 301 300 300 300 299 299 298 297 296 296 296
306 308 306 306 307 306 309 308 308 309 308 314 306 319 317 310 305 301 301 300 299 299 298 299 299 300 300 301 301 301 301 300 300 300 300 299 298 297 296 296 296 295 295 295
307 306 308 309 307 307 309 305 307 308 309 310 309 312 315 304 306 304 301 299 299 298 298 298 298 298 299 299 299 299 299 299 299 298 298 297 296 296 296 296 295 295 294 294
308 304 307 308 308 306 304 306 306 306 309 311 313 311 317 314 310 306 301 299 298 297 297 297 297 297 297 297 297 297 297 296 296 296 296 296 296 295 295 295 294 293 293 293
307 307 305 304 306 305 307 308 311 311 311 314 307 310 315 309 303 303 302 299 297 296 296 296 297 297 297 297 297 296 296 296 296 296 295 295 295 294 294 293 293 292 292 292
310 309 306 305 307 307 308 311 313 315 314 313 302 310 313 302 296 293 298 298 296 296 296 296 297 297 297 297 296 296 296 295 295 294 294 295 294 293 293 292 292 292 291 291
311 311 305 304 304 306 307 310 309 305 300 309 307 306 304 299 297 295 295 297 296 296 296 296 296 296 296 296 296 296 295 295 294 295 295 295 294 293 293 292 292 292 292 292
311 311 305 304 303 303 306 306 309 311 311 314 313 307 313 301 301 297 296 297 297 295 295 295 295 295 295 295 295 295 295 296 296 295 295 294 294 293 293 292 292 292 292 291
305 309 305 303 306 307 306 307 309 309 311 318 317 316 308 305 302 299 298 297 296 295 294 294 295 295 295 295 295 295 295 296 296 295 295 294 294 293 293 292 292 292 292 292
304 306 305 304 298 298 305 309 307 313 308 304 305 314 295 294 296 300 297 296 295 295 295 295 296 296 296 296 296 295 294 294 295 295 295 294 293 293 293 292 292 292 293 293
304 304 303 303 303 301 304 303 306 302 304 306 312 314 293 291 291 292 297 294 294 295 295 295 295 295 295 295 295 295 295 295 294 294 294 294 293 293 292 292 292 292 293 293
303 304 307 310 306 303 303 305 303 307 309 308 310 308 303 298 295 292 294 294 294 295 295 295 294 294 294 294 293 294 294 294 294 295 294 293 293 293 292 292 292 292 292 293
303 306 301 296 296 299 301 302 303 306 307 309 307 304 306 301 297 294 293 293 293 294 294 294 294 294 293 293 293 293 294 294 294 294 294 294 293 293 292 292 292 292 292 292
300 303 299 299 296 298 302 301 302 304 307 303 294 299 297 289 288 291 292 292 292 293 294 294 294 293 293 292 292 292 292 293 293 293 293 293 293 293 292 292 291 291 292 291
302 300 302 303 296 299 303 300 302 303 304 304 305 305 296 294 291 294 293 293 293 294 294 294 293 292 291 291 291 291 291 291 292 291 291 292 291 292 292 292 292 291 291 291
301 302 301 298 297 306 297 286 291 301 299 303 298 295 297 297 292 292 294 295 294 293 293 292 291 290 290 289 289 289 289 289 289 289 289 289 290 289 289 290 291 291 291 291
297 299 297 303 303 301 295 292 295 299 302 298 299 297 291 287 289 291 291 293 293 293 292 291 290 288 288 287 287 287 287 288 287 287 288 288 288 288 288 288 288 289 289 290
296 296 300 298 303 304 297 291 287 290 301 289 286 293 288 289 300 300 292 292 292 291 291 289 288 287 287 287 286 286 287 287 286 287 287 287 287 287 288 288 288 289 289 288
299 297 299 298 301 299 292 290 288 299 299 287 283 284 288 294 294 291 291 290 290 290 288 287 287 287 286 286 286 286 286 286 286 286 287 287 287 287 287 287 287 288 288 288
298 299 298 296 300 300 289 290 297 295 289 288 285 284 287 289 289 289 289 289 288 287 286 286 285 285 285 285 285 285 285 286 286 286 286 286 286 286 286 286 286 287 287 287
298 296 298 297 298 292 289 292 292 292 292 291 289 288 290 290 289 289 289 287 286 286 285 285 284 284 284 284 284 284 284 284 285 285 285 285 285 285 285 285 285 285 285 285
292 291 295 296 294 293 291 292 292 292 293 292 290 291 291 291 289 288 287 286 286 285 284 284 284 284 283 283 283 283 284 284 284 284 284 284 284 284 284 284 285 285 284 284
292 291 293 294 294 292 293 292 292 292 291 292 291 290 290 289 288 287 286 285 284 284 283 283 283 283 283 283 283 283 283 283 283 283 282 282 282 282 282 283 283 283 283 283
291 292 294 295 292 292 293 293 293 293 292 291 291 289 288 288 288 286 285 284 283 283 283 283 283 283 283 283 282 282 282 283 283 283 282 281 281 280 280 280 280 281 281 281
Wind_Speed
12 9 20 24 22 18 12 16 17 10 7 9 16 17 17 19 17 18 18 17 15 16 16 15 14 15 18 23 24 26 28 28 27 25 22 21 20 19 19 20 22 23 24 21
7 23 23 13 19 21 14 14 15 4 6 7 8 16 15 16 22 28 26 22 19 16 16 14 11 10 11 14 20 23 25 25 25 23 22 20 20 21 22 22 23 23 22 21
20 20 18 16 15 17 22 23 18 14 3 4 7 21 18 15 22 20 17 21 19 20 19 16 13 11 10 11 14 17 20 21 21 21 21 20 21 22 23 24 24 23 23 24
15 20 9 20 22 18 19 16 15 11 4 11 2 12 14 11 13 12 17 20 21 20 18 16 15 13 12 12 13 15 16 18 19 19 19 20 21 22 23 23 24 25 26 26
14 13 22 11 20 18 11 3 8 11 14 9 12 6 9 6 10 15 16 21 21 20 20 19 17 15 14 13 13 14 15 16 17 19 20 21 22 23 24 24 24 24 25 24
7 1 14 16 14 13 14 8 5 3 4 7 13 14 21 12 8 6 18 24 22 20 20 18 17 16 15 14 14 15 15 16 17 18 19 20 21 22 22 22 22 22 22 22
5 5 4 3 6 5 9 11 4 5 6 7 6 12 25 2 5 5 16 25 23 22 20 18 17 16 16 15 15 15 15 16 16 17 19 19 20 20 20 20 20 19 19 19
13 7 13 9 9 10 21 13 6 9 7 5 5 12 8 1 3 4 12 24 23 20 18 17 17 16 16 15 15 15 15 15 16 17 17 18 18 19 19 19 19 19 18 18
11 9 11 19 6 12 7 9 2 6 2 2 6 7 12 8 4 5 14 23 22 18 18 18 16 15 15 14 14 13 13 14 15 16 17 17 18 18 18 19 19 19 18 19
6 6 11 6 6 1 6 12 4 4 7 6 7 7 8 8 11 11 14 22 20 17 18 17 15 13 12 11 10 11 12 13 14 15 16 16 17 18 18 19 17 17 18 18
4 3 6 11 10 14 7 6 5 4 3 6 4 5 2 2 13 16 15 20 21 20 19 17 14 11 9 8 8 9 10 11 13 14 15 15 16 17 17 16 16 16 16 15
7 2 5 7 2 2 6 5 8 6 6 2 2 5 1 0 1 11 16 19 20 21 19 16 13 10 8 7 7 8 8 9 11 13 13 14 15 15 15 15 13 13 12 13
6 5 5 4 2 2 7 6 6 5 1 8 7 5 1 1 2 7 14 19 22 21 19 15 12 10 8 7 8 8 9 9 9 11 13 13 14 15 15 14 13 12 12 12
8 5 4 8 3 5 8 16 14 11 5 7 12 3 1 3 7 9 14 21 21 20 17 15 12 9 8 8 7 7 9 9 10 10 12 13 14 16 15 14 13 13 12 13
6 5 3 2 1 1 4 14 18 17 13 12 6 12 2 5 9 11 16 20 19 19 19 16 12 10 9 9 9 9 9 9 10 11 12 12 14 16 15 15 14 14 14 14
2 1 2 2 1 2 3 8 17 19 16 8 1 5 4 2 3 12 20 21 19 20 18 15 13 11 10 11 12 13 12 12 11 11 13 13 13 15 16 17 17 16 16 16
7 7 5 3 0 1 5 12 17 14 14 13 15 11 4 3 7 14 21 25 23 19 16 13 11 9 8 9 10 11 12 12 12 12 13 13 14 14 15 17 19 18 18 19
5 6 2 2 3 6 1 1 2 12 6 14 3 3 7 4 6 12 18 25 23 17 15 13 11 9 9 9 9 9 9 9 10 11 12 13 14 15 16 17 18 19 21 22
2 3 4 4 4 3 4 2 4 6 3 5 12 8 3 2 4 4 11 15 20 18 14 11 9 8 6 6 6 6 6 7 8 9 10 12 13 14 15 17 18 18 21 22
5 6 2 1 2 2 2 2 1 1 3 3 2 3 7 10 7 3 15 16 18 15 12 9 8 6 4 4 3 3 4 5 7 8 9 10 11 12 13 14 15 15 17 19
2 2 2 1 0 3 1 3 3 3 2 3 3 4 12 6 1 9 19 17 14 12 10 8 6 5 3 2 2 3 4 6 7 7 8 9 10 10 11 11 13 13 13 15
0 2 2 2 1 3 5 5 1 2 0 2 2 5 11 6 12 19 17 14 13 10 9 7 5 3 2 1 2 3 4 5 6 7 8 8 9 9 10 10 11 11 12 12
1 1 1 3 1 2 8 1 3 1 1 1 2 9 13 12 14 17 15 14 12 10 8 6 4 2 1 1 2 3 4 5 6 6 7 7 8 9 9 9 9 9 10 10
1 0 1 2 1 3 6 7 10 4 3 2 1 6 11 10 12 13 15 15 13 10 7 5 4 3 2 2 4 4 5 6 6 7 7 7 7 8 9 9 9 9 9 8
2 0 2 3 1 4 3 5 8 9 10 6 4 5 8 9 14 15 17 16 13 11 9 6 4 3 3 4 5 6 6 6 7 8 8 8 8 8 8 9 9 8 9 9
5 3 2 1 4 3 3 10 9 5 8 9 7 9 10 12 15 15 15 13 12 11 9 6 3 2 3 4 5 6 6 7 7 7 8 8 8 9 9 8 9 10 9 9
Wind_Direction
187 205 219 215 216 228 267 239 241 231 181 211 226 242 239 220 217 219 221 220 221 225 228 228 230 232 231 227 226 224 222 221 223 227 230 238 246 255 265 274 283 288 290 288
176 224 226 241 218 224 226 237 231 247 165 215 253 254 244 242 233 230 227 220 212 206 207 204 204 206 209 211 214 214 216 218 221 226 233 241 249 258 267 275 281 284 283 283
202 222 204 195 204 215 232 236 241 243 165 241 288 273 241 237 237 232 228 218 205 201 195 192 187 181 179 184 193 200 207 212 219 227 235 244 253 263 271 278 281 280 280 281
229 241 219 208 210 196 229 220 237 232 213 248 226 278 235 211 220 215 209 194 190 188 189 190 188 183 178 177 181 190 201 211 220 229 238 249 259 266 271 275 278 279 279 278
214 200 205 202 216 200 230 29 229 229 236 268 224 256 249 168 230 222 203 196 190 186 188 189 190 191 194 195 197 201 208 218 229 239 248 256 262 268 272 276 277 278 278 276
207 184 197 214 206 204 146 113 93 113 176 224 219 212 268 215 207 211 192 188 180 177 180 185 191 196 201 206 211 218 225 233 241 250 256 261 266 270 273 276 277 277 277 275
172 177 162 175 129 126 161 144 153 189 201 235 159 197 246 308 193 190 185 181 177 177 181 189 195 199 204 209 216 224 232 239 247 254 259 264 268 270 271 273 274 275 275 273
197 200 167 174 198 178 188 183 182 209 199 193 153 222 243 271 92 173 175 168 168 174 184 188 193 200 207 213 221 228 237 243 251 256 261 264 264 266 270 272 272 271 271 269
191 219 186 171 156 151 168 214 107 107 13 183 203 259 273 191 166 163 161 162 170 176 183 190 195 201 207 213 221 229 238 246 253 257 260 263 264 267 268 267 269 271 270 269
202 195 190 140 122 176 197 137 146 180 172 220 217 263 247 204 192 170 170 172 173 174 180 181 180 184 191 204 219 232 244 250 255 259 262 265 266 268 269 269 269 270 268 268
199 175 139 149 208 175 155 177 186 162 197 213 246 241 214 226 183 176 177 174 172 175 177 175 175 177 185 201 220 236 243 249 255 259 262 266 268 266 267 268 268 269 268 265
188 101 153 185 0 309 227 213 179 197 187 253 5 271 92 63 219 175 169 170 174 176 175 175 177 184 196 214 231 244 253 254 258 262 262 262 265 264 265 263 261 262 263 267
172 164 126 123 123 179 210 188 209 74 93 194 185 248 43 76 205 188 167 172 175 176 176 179 186 194 207 227 244 255 261 265 265 265 262 260 261 263 262 260 258 258 259 264
181 182 218 220 127 136 194 191 181 187 196 165 227 320 245 171 184 179 178 178 177 180 183 188 193 203 221 236 246 259 265 266 269 272 268 260 258 260 263 264 263 260 258 260
194 222 150 73 116 153 192 184 186 203 202 197 186 207 184 191 197 186 175 179 182 187 194 198 207 224 237 246 253 260 269 276 277 272 269 268 262 261 261 262 263 265 265 259
182 169 108 137 342 252 218 203 202 215 213 231 169 265 181 98 151 177 186 183 191 198 200 208 222 234 248 252 253 258 266 274 278 278 273 268 266 265 261 260 259 260 264 264
173 149 175 203 98 154 266 214 200 210 213 216 224 230 135 226 215 205 192 196 198 196 200 206 214 215 231 250 257 260 264 270 275 274 271 268 266 265 264 263 264 264 261 263
160 140 90 132 179 216 67 187 309 223 234 216 225 188 219 216 204 216 208 205 203 205 199 197 207 220 241 259 265 268 272 275 275 275 275 275 273 271 268 266 265 266 268 267
19 135 119 184 212 298 149 153 170 182 269 249 231 202 163 144 133 236 198 202 203 189 191 201 217 235 236 251 263 272 280 282 282 282 282 281 279 276 275 273 271 269 268 267
59 61 70 161 190 219 29 25 105 19 295 351 300 229 165 150 190 157 175 171 172 179 190 204 209 214 217 234 258 277 291 288 290 292 291 289 286 284 281 278 276 273 273 273
63 36 104 134 325 288 330 101 129 122 9 342 278 259 174 183 181 161 165 165 174 180 188 192 194 195 203 232 281 303 298 302 305 306 304 300 297 295 292 290 287 284 281 280
116 126 131 108 149 274 140 121 229 22 285 280 287 180 173 153 135 147 156 162 168 175 180 184 179 175 189 248 308 314 309 311 313 314 314 310 308 306 303 300 296 296 294 290
166 326 307 231 33 24 194 302 224 133 341 293 46 156 162 149 151 153 162 169 168 174 177 170 168 157 183 313 332 328 322 321 323 324 320 316 315 315 315 312 312 310 303 299
208 158 313 332 11 267 239 253 252 260 263 304 126 157 173 181 175 172 171 171 168 168 167 164 147 119 80 17 7 358 349 336 332 330 323 316 318 316 317 320 324 322 311 303
15 100 334 282 321 278 268 300 299 273 240 234 218 189 183 197 188 182 177 172 164 160 155 147 132 109 67 36 21 9 358 348 340 336 327 327 328 326 326 326 325 320 312 306
351 2 359 351 359 324 338 345 346 304 252 227 211 187 185 189 186 180 177 170 160 152 149 144 134 92 55 36 29 17 8 1 355 347 340 338 337 334 333 334 324 320 314 310